TimePST,TemperatureF,Dew PointF,Humidity,Sea Level PressureIn,VisibilityMPH,Wind Direction,Wind SpeedMPH,Gust SpeedMPH,PrecipitationIn,Events,Conditions,WindDirDegrees,DateUTC
12:00 AM,32.0,30.2,93,30.40,30.0,West,4.6,-,N/A,,Partly Cloudy,260,2014-01-04 08:00:00
1:00 AM,28.4,26.6,93,30.41,30.0,West,4.6,-,N/A,,Partly Cloudy,260,2014-01-04 09:00:00
2:00 AM,30.2,30.2,100,30.43,30.0,WNW,8.1,-,N/A,,Partly Cloudy,290,2014-01-04 10:00:00
3:00 AM,28.4,26.6,93,30.45,30.0,West,5.8,-,N/A,,Partly Cloudy,270,2014-01-04 11:00:00
4:00 AM,30,29,92,30.45,28,West,4.6,,,,Scattered Clouds,270,2014-01-04 12:00:00
4:00 AM,30.2,28.4,93,30.45,30.0,West,4.6,-,N/A,,Partly Cloudy,280,2014-01-04 12:00:00
5:00 AM,28.4,26.6,93,30.45,30.0,West,4.6,-,N/A,,Partly Cloudy,270,2014-01-04 13:00:00
6:00 AM,26.6,26.6,100,30.46,30.0,West,4.6,-,N/A,,Partly Cloudy,270,2014-01-04 14:00:00
7:00 AM,26.6,24.8,93,30.46,30.0,WSW,4.6,-,N/A,,Partly Cloudy,250,2014-01-04 15:00:00
8:00 AM,30.2,28.4,93,30.47,30.0,West,4.6,-,N/A,,Scattered Clouds,260,2014-01-04 16:00:00
9:00 AM,30.2,28.4,93,30.48,30.0,WSW,5.8,-,N/A,,Scattered Clouds,250,2014-01-04 17:00:00
10:00 AM,35,32,83,30.50,28,West,3.5,,,,Scattered Clouds,270,2014-01-04 18:00:00
10:00 AM,33.8,32.0,93,30.50,30.0,West,4.6,-,N/A,,Scattered Clouds,280,2014-01-04 18:00:00
11:00 AM,37.4,33.8,87,30.51,30.0,WNW,6.9,-,N/A,,Scattered Clouds,290,2014-01-04 19:00:00
12:00 PM,39.2,33.8,81,30.50,30.0,West,5.8,-,N/A,,Mostly Cloudy,270,2014-01-04 20:00:00
1:00 PM,41.0,33.8,76,30.48,30.0,NNW,4.6,-,N/A,,Mostly Cloudy,330,2014-01-04 21:00:00
2:00 PM,41.0,33.8,76,30.47,30.0,NNW,3.5,-,N/A,,Scattered Clouds,330,2014-01-04 22:00:00
3:00 PM,41.0,32.0,70,30.47,30.0,North,5.8,-,N/A,,Partly Cloudy,360,2014-01-04 23:00:00
4:00 PM,38,32,71,30.47,28,NNE,4.6,,,,Scattered Clouds,30,2014-01-05 00:00:00
4:00 PM,39.2,32.0,75,30.47,30.0,NNE,4.6,-,N/A,,Partly Cloudy,30,2014-01-05 00:00:00
4:18 PM,35.6,32.0,87,30.47,30.0,North,4.6,-,N/A,,Partly Cloudy,10,2014-01-05 00:18:00
5:00 PM,35.6,32.0,87,30.47,30.0,NNW,5.8,-,N/A,,Partly Cloudy,340,2014-01-05 01:00:00
6:00 PM,33.8,30.2,87,30.48,30.0,North,3.5,-,N/A,,Partly Cloudy,350,2014-01-05 02:00:00
7:00 PM,28.4,26.6,93,30.49,30.0,WSW,4.6,-,N/A,,Partly Cloudy,250,2014-01-05 03:00:00
8:00 PM,28.4,28.4,100,30.49,30.0,WSW,5.8,-,N/A,,Partly Cloudy,240,2014-01-05 04:00:00
9:00 PM,32.0,32.0,100,30.50,30.0,WNW,5.8,-,N/A,,Partly Cloudy,300,2014-01-05 05:00:00
10:00 PM,33,32,94,30.50,28,West,3.5,,,,,270,2014-01-05 06:00:00
10:00 PM,33.8,32.0,93,30.50,30.0,West,4.6,-,N/A,,Clear,270,2014-01-05 06:00:00
11:00 PM,32.0,30.2,93,30.51,30.0,WNW,4.6,-,N/A,,Clear,300,2014-01-05 07:00:00